Theta_e
349 345 347 346 344 341 338 332 328 327 328 327 331 331 329 318 313 315 318 316 315 316 316 316 314 314 312 312 311 313 313 314 313 312 312 311 311 309 311 312 311 311 311
347 345 344 342 340 335 329 327 328 327 328 332 331 327 317 313 315 316 315 315 315 315 316 315 312 311 311 310 310 311 311 311 311 312 311 310 309 307 308 309 309 310 310
346 343 340 338 335 328 328 328 327 330 332 328 322 316 315 317 317 317 317 317 317 316 314 315 313 311 310 309 309 309 310 311 311 311 310 309 308 308 307 310 308 310 310
344 341 340 332 328 327 327 328 330 330 327 320 317 315 313 314 315 317 317 316 315 315 315 314 314 311 308 308 308 309 310 311 311 310 309 308 307 307 306 304 308 309 311
336 337 331 327 326 327 329 328 328 326 319 314 312 312 313 313 313 315 316 315 315 315 314 312 312 311 306 305 307 309 310 310 310 309 308 307 307 306 304 304 305 306 309
339 332 326 324 326 329 327 325 323 317 315 312 312 313 313 313 313 313 314 315 314 313 311 309 308 309 308 306 306 307 310 310 309 308 307 306 306 305 304 304 304 305 304
329 323 324 325 327 325 323 320 316 314 313 312 313 313 312 312 312 312 313 314 314 313 311 310 307 306 306 306 305 306 309 309 308 308 308 305 305 305 304 305 305 305 305
324 324 322 323 324 322 319 315 314 314 314 313 312 312 312 312 311 311 312 312 311 310 309 308 306 305 302 302 304 307 308 308 307 307 307 306 305 305 304 304 305 305 305
321 320 320 323 320 316 314 314 314 313 312 312 312 311 311 311 310 310 310 309 309 307 306 305 303 300 299 301 305 306 307 306 307 306 306 306 306 306 305 305 304 304 304
319 319 318 317 316 314 314 314 313 312 311 310 310 310 310 310 310 310 310 309 308 305 303 302 299 297 300 302 303 303 303 304 303 305 307 306 306 306 306 305 304 303 303
317 317 316 315 314 313 313 312 311 311 310 309 309 308 308 309 309 308 307 307 307 303 301 299 296 297 300 300 300 301 302 302 303 304 304 304 305 305 306 305 304 303 303
316 316 314 313 313 313 312 312 311 310 309 307 305 304 306 307 306 306 305 305 303 300 298 296 296 297 297 298 298 299 301 303 302 302 303 303 303 304 305 305 305 303 303
313 313 312 312 312 312 312 311 310 310 309 308 307 304 303 301 300 300 298 296 296 297 298 297 296 296 296 296 296 297 299 299 299 300 301 302 302 303 305 305 305 304 303
312 312 311 311 311 310 310 309 309 309 308 307 304 301 300 298 296 295 294 294 295 297 297 296 296 295 295 295 295 295 296 297 297 298 299 301 302 303 304 304 304 304 303
310 310 310 310 309 309 308 308 307 305 305 304 301 299 296 294 292 292 293 294 295 295 295 294 294 294 294 294 295 295 295 296 297 297 298 299 301 302 303 304 304 304 303
309 309 308 308 307 307 307 305 302 299 297 296 296 294 292 292 292 294 294 294 294 294 294 293 293 292 292 293 293 294 293 295 296 296 297 298 300 301 302 304 304 304 304
307 306 305 305 304 302 300 298 295 291 291 292 292 291 291 292 293 294 294 294 293 293 293 292 292 292 291 290 291 292 293 293 295 296 297 297 299 301 301 302 304 304 304
304 303 302 302 301 300 299 299 297 294 295 295 294 294 294 293 293 294 294 293 292 292 292 291 291 291 290 290 289 290 290 292 295 295 296 297 298 300 300 302 302 303 304
304 304 304 304 302 301 300 299 299 298 298 297 297 295 295 294 294 293 292 292 292 292 291 291 290 290 289 289 289 288 289 291 294 295 296 296 296 298 299 302 301 303 304
304 304 303 301 300 299 299 297 296 295 295 295 295 295 295 294 293 293 292 292 291 291 291 290 289 289 288 288 288 288 289 293 293 294 295 295 295 296 298 301 300 303 303
301 301 300 300 299 299 298 297 295 294 293 292 293 293 294 293 293 293 292 291 291 290 290 290 289 288 287 288 288 288 289 291 293 292 293 294 294 295 296 300 300 302 303
300 300 299 299 298 298 298 297 296 296 295 294 293 293 293 293 292 292 292 291 291 290 290 289 288 287 287 287 287 288 288 289 291 292 292 293 293 294 295 299 299 301 301
299 299 298 298 297 297 297 296 296 295 294 294 293 293 293 292 292 292 291 291 291 290 289 288 287 286 286 287 287 287 288 289 290 291 291 293 292 294 295 298 299 300 300
298 297 298 298 297 297 296 295 295 294 294 293 293 292 292 292 291 291 291 291 291 290 289 289 287 286 286 286 287 287 287 289 290 290 290 291 291 293 295 297 299 299 300
298 297 297 296 296 296 295 295 294 294 293 293 292 292 292 291 291 291 291 290 290 290 289 289 288 286 286 286 286 287 287 288 289 289 289 291 291 293 295 296 298 299 299
297 297 297 297 296 296 295 295 294 294 293 293 292 291 291 291 291 290 290 290 290 289 289 288 288 287 286 286 286 286 287 287 288 289 289 290 291 291 294 296 298 299 300
Wind_Speed
44 43 44 38 33 26 27 25 23 19 18 14 9 5 4 5 7 9 10 9 10 11 11 12 13 16 16 18 19 17 17 22 26 32 33 35 37 47 39 36 34 35 37
46 46 40 38 30 30 28 25 22 22 18 13 9 7 8 10 9 9 10 11 11 12 12 13 16 18 20 21 22 21 20 24 24 31 36 37 44 47 43 43 42 40 41
49 45 41 34 34 31 28 27 25 21 17 14 12 12 12 12 12 12 11 11 11 10 13 14 16 20 22 24 25 24 25 27 28 31 38 39 43 45 48 44 47 44 43
53 47 37 35 33 32 32 28 24 20 16 15 13 9 8 7 8 10 12 12 12 13 13 12 16 20 23 25 26 24 26 29 32 33 39 45 44 44 45 46 50 47 42
54 49 43 37 35 34 30 27 23 19 16 13 11 12 12 10 10 10 11 10 11 11 8 10 13 19 21 24 26 24 26 29 32 35 40 44 43 44 44 45 45 45 41
45 42 42 39 37 32 29 26 22 20 17 12 13 14 13 13 13 11 10 11 10 10 12 12 10 20 23 24 25 22 17 23 29 29 41 40 40 41 39 39 40 41 40
45 42 39 37 35 30 27 24 21 18 15 15 17 15 13 12 11 10 9 11 10 13 14 17 23 25 27 27 26 24 19 18 18 27 33 40 38 34 32 34 36 35 36
41 41 39 36 32 28 25 23 22 19 16 17 17 14 11 10 9 10 12 12 10 10 14 19 23 26 27 27 27 24 23 23 20 27 29 34 33 31 27 28 31 34 34
41 39 36 31 29 27 25 23 20 20 18 17 15 13 11 10 9 8 7 4 9 12 16 20 21 25 24 25 24 25 26 23 23 21 27 34 35 34 29 29 32 37 38
39 37 34 31 29 27 25 23 20 19 19 17 15 12 10 10 9 10 10 11 10 10 14 18 21 23 23 26 25 28 29 29 28 26 29 35 39 39 32 29 28 33 34
40 37 34 30 28 27 27 25 20 19 18 16 14 12 11 11 10 11 13 13 12 11 13 22 23 25 22 25 24 23 24 23 28 29 35 36 39 42 38 33 27 27 30
38 35 33 31 30 27 26 23 21 20 19 19 16 12 11 12 12 12 12 13 12 13 17 23 25 24 22 20 23 20 22 20 27 31 35 37 41 43 42 37 32 28 29
40 38 34 32 30 28 27 23 20 17 17 15 11 8 12 14 13 13 15 14 14 18 16 20 20 20 23 23 24 23 24 26 31 32 33 38 38 41 43 40 36 39 36
42 40 37 36 32 27 24 23 23 21 17 16 13 6 12 14 16 17 17 18 18 19 17 15 16 19 21 25 30 30 27 30 32 30 32 36 38 41 44 43 40 42 42
39 37 33 30 26 24 24 23 17 14 9 10 11 10 13 15 19 20 19 19 17 16 14 19 23 25 27 28 31 31 29 30 33 34 35 35 39 41 44 43 39 39 41
35 32 28 26 23 24 23 22 18 17 15 14 14 14 17 17 17 18 20 17 18 16 20 24 27 27 28 27 29 31 32 29 31 34 37 37 36 38 42 42 39 37 40
34 33 31 30 29 27 25 23 25 24 22 20 20 20 19 17 17 17 18 18 19 20 24 25 27 27 29 29 30 29 31 27 28 34 36 37 36 35 39 47 40 36 35
33 30 28 27 25 24 23 22 19 19 23 24 24 23 23 21 18 16 14 15 21 25 25 24 23 24 27 27 30 29 28 25 26 31 35 36 35 34 38 40 45 35 32
29 29 26 25 24 23 22 20 19 18 15 16 17 19 19 19 19 19 18 21 21 23 24 24 23 24 24 25 28 30 29 26 26 30 32 34 34 35 35 35 43 36 28
29 26 26 26 24 23 20 19 17 16 14 13 12 13 14 11 16 18 21 20 21 21 22 23 23 22 24 26 27 31 31 27 28 30 32 35 34 34 34 32 41 39 30
32 27 25 24 23 21 19 18 16 16 17 17 18 17 14 14 15 17 18 19 20 21 21 20 21 24 26 28 28 30 31 27 27 30 30 34 33 33 34 29 37 35 33
28 25 24 24 22 21 20 19 17 16 14 14 14 16 14 15 16 16 17 17 17 18 18 19 20 25 27 29 29 30 31 30 27 31 31 33 32 31 33 29 36 34 30
26 26 24 23 24 21 19 18 16 15 15 14 13 13 14 15 16 16 16 16 18 17 18 19 22 24 26 27 29 29 29 30 28 29 31 31 32 30 32 30 36 34 29
24 25 24 22 21 20 19 20 18 15 14 14 14 14 14 14 14 15 14 15 15 17 18 20 22 24 25 26 27 28 27 24 25 27 27 28 30 28 31 31 34 32 28
23 23 22 22 21 21 19 16 15 14 14 14 14 13 13 12 12 13 13 13 14 14 15 17 21 23 24 24 26 26 26 25 22 25 29 26 29 28 31 30 34 30 28
23 22 22 21 19 18 17 15 14 13 13 13 12 12 11 10 11 11 12 12 12 13 14 15 17 21 22 23 24 25 26 26 24 22 28 24 27 31 31 29 33 31 29
Wind_Direction
168 156 166 159 163 168 170 155 141 134 137 137 132 108 92 74 54 54 31 32 26 25 29 21 10 3 11 3 0 356 354 336 325 332 330 337 333 340 340 342 343 344 339
153 165 157 157 160 173 159 142 136 134 133 131 120 102 79 64 64 50 45 35 33 37 31 7 17 16 12 5 0 358 350 339 346 332 340 341 338 345 346 345 348 348 348
155 155 157 158 165 159 143 136 134 132 127 119 104 93 80 70 58 56 56 56 31 28 25 22 10 8 5 2 0 356 355 352 349 338 339 342 345 348 346 349 348 349 347
152 156 153 155 150 145 135 132 128 123 119 114 116 111 103 95 89 84 48 45 42 38 31 28 347 354 2 359 357 359 357 355 349 345 343 346 343 345 346 348 344 348 347
140 145 142 146 138 130 127 127 123 119 114 111 104 99 94 92 85 82 72 52 39 38 8 33 0 349 357 359 358 360 357 352 350 347 347 343 342 342 345 343 342 345 355
147 141 136 137 131 125 127 123 120 118 116 116 104 100 96 83 71 59 52 57 24 23 7 24 11 351 354 356 1 360 5 351 347 351 354 347 342 339 336 339 342 349 346
140 133 131 127 123 125 124 123 121 119 119 103 101 98 88 78 66 55 51 54 15 12 353 356 353 353 353 355 355 4 4 354 354 353 344 354 346 344 340 340 344 351 347
126 121 118 122 123 124 124 118 115 112 106 103 102 96 86 75 64 60 57 26 1 16 346 339 343 350 350 354 357 2 4 5 14 356 347 356 2 354 349 344 350 350 348
116 118 121 125 123 120 116 115 114 114 111 109 102 94 76 69 54 41 24 19 8 17 345 340 345 348 355 357 1 5 7 11 13 5 2 10 9 10 360 349 358 0 353
116 116 118 124 122 117 115 112 110 108 106 101 92 77 67 53 36 20 7 7 15 39 358 344 352 3 3 7 6 9 6 8 5 8 12 15 13 16 11 9 5 5 360
120 122 122 122 120 117 116 117 120 112 103 89 80 72 57 44 29 17 8 5 13 20 1 1 9 11 16 6 6 7 358 8 4 12 14 12 16 17 14 17 17 19 5
127 124 118 115 117 118 117 111 103 95 86 75 72 56 36 34 23 13 12 18 23 27 25 21 14 10 9 5 2 0 2 15 15 11 12 13 11 15 15 18 23 28 19
120 117 115 113 107 103 102 97 93 90 93 92 77 39 39 40 37 34 36 34 41 45 37 23 15 13 9 11 6 12 21 25 17 12 9 15 11 9 15 17 23 31 27
117 115 120 126 130 127 124 125 121 116 121 119 105 59 49 52 50 48 48 52 54 50 37 18 20 22 22 21 15 19 26 29 15 18 16 11 12 10 15 18 21 28 25
133 129 132 133 133 135 134 131 127 108 110 108 91 71 68 60 52 45 48 51 53 40 35 31 26 23 22 22 15 19 21 28 18 22 21 13 11 9 13 15 22 26 27
127 131 129 129 128 128 127 120 102 90 85 82 80 75 71 65 58 55 50 58 47 43 42 37 27 23 21 20 16 15 14 24 25 20 17 16 12 9 9 16 21 27 31
122 121 119 117 114 113 108 103 100 91 84 80 75 68 65 65 68 62 49 37 47 43 41 37 32 22 18 21 21 17 10 19 32 26 21 15 20 11 10 12 19 23 31
107 108 106 103 101 95 90 84 80 86 80 71 65 61 53 54 61 65 58 50 47 47 36 32 30 24 17 19 17 15 14 21 33 33 24 15 20 16 10 9 15 20 28
112 108 109 113 115 113 113 109 103 94 78 62 54 52 48 48 40 41 51 49 47 48 39 28 26 23 16 21 19 18 19 27 35 32 33 22 17 20 11 10 9 20 27
126 132 127 115 111 109 108 106 104 102 101 101 97 93 82 58 51 47 42 45 43 44 45 30 21 23 21 25 26 23 25 35 38 35 34 29 17 23 13 11 8 15 25
110 112 115 115 113 112 110 106 102 97 93 89 93 87 76 67 61 50 50 44 40 37 39 36 21 26 27 28 27 29 30 32 32 33 32 29 16 23 16 12 9 13 22
117 119 120 117 115 111 108 105 102 96 89 79 68 69 69 69 59 57 48 44 47 36 34 34 28 28 28 27 25 27 30 30 29 31 30 33 15 25 19 12 9 13 20
123 122 124 124 118 112 110 109 107 103 98 91 82 69 65 61 63 51 48 44 35 39 30 24 29 30 29 27 26 26 26 27 28 28 24 32 17 25 23 12 11 14 24
123 113 110 116 122 123 122 116 110 102 95 88 83 76 67 61 60 60 49 39 44 31 29 19 21 24 26 27 27 27 27 25 27 27 28 32 24 27 30 10 15 18 26
124 125 118 114 113 109 109 110 107 104 98 92 85 77 72 66 59 52 61 48 35 37 30 21 7 21 23 23 24 25 24 22 26 34 35 37 30 36 34 12 16 25 31
122 122 120 118 116 114 114 113 108 102 96 91 90 87 78 68 65 54 50 54 44 34 22 32 357 18 18 22 22 21 22 22 21 33 42 42 37 31 33 17 22 29 36